Home   Weather   Venice   Past weeks

Flag for Italy Past Weather in Venice, Italy — Yesterday and Last 2 Weeks

Now
59 °F

Thundershowers. Passing clouds.


Feels Like: 58 °F
Forecast: 53 / 60 °F
Wind: 7 mph from Southwest

Location: Venice / Tessera

Current Time: Apr 27, 2017 at 8:58:57 pm

Latest Report: Apr 27, 2017 at 8:20 pm


Visibility: N/A

Pressure: 29.68 "Hg

Humidity: 94%

Dew Point: 57 °F

Location of VeniceLocation

Past Weather in Venice — Graph

°F

Venice Temperature Yesterday

Maximum temperature yesterday: 63 °F (at 8:20 am)
Minimum temperature yesterday: 54 °F (at 1:50 am)
Average temperature yesterday: 58 °F

High & Low Weather Summary for the Past Weeks

 TemperatureHumidityPressure
High64 °F (Apr 25, 3:20 pm)94% (Apr 26, 1:50 am)30.42 "Hg (Apr 26, 1:50 am)
Low41 °F (Apr 22, 6:20 am)13% (Apr 19, 4:50 pm)29.68 "Hg (Apr 27, 6:20 pm)
Average55 °F61%30.06 "Hg
* Reported Apr 19 9:20 am — Apr 27 7:20 pm, Venice, Weather by CustomWeather, © 2017

Note: Actual official high and low records may vary slightly from our data, if they occured in-between our weather recording intervals... More about our weather records

Advertising

Venice Weather History for the Previous 24 Hours

Scroll right to see more
 ConditionsComfort  
Time TempWeatherWind HumidityBarometerVisibility
7:20 pm
Thu, Apr 27
59 °FLight rain. Broken clouds.17 mph94%29.68 "Hg6 mi
6:50 pm61 °FLight rain. Broken clouds.17 mph88%29.68 "HgN/A
6:20 pm61 °FLight rain. Broken clouds.16 mph88%29.68 "HgN/A
5:50 pm59 °FLight rain. Broken clouds.15 mph94%29.71 "Hg5 mi
5:20 pm61 °FLight rain. Broken clouds.12 mph88%29.71 "Hg5 mi
4:50 pm61 °FBroken clouds.13 mph88%29.71 "Hg5 mi
4:20 pm61 °FLight rain. Partly sunny.13 mph88%29.71 "Hg5 mi
3:50 pm61 °FLight rain. Partly sunny.13 mph94%29.74 "Hg4 mi
3:20 pm61 °FLight rain. Partly sunny.12 mph94%29.74 "Hg5 mi
2:20 pm61 °FDrizzle. Broken clouds.10 mph94%29.74 "Hg6 mi
1:50 pm61 °FLight rain. Broken clouds.10 mph88%29.77 "Hg5 mi
1:20 pm61 °FBroken clouds.9 mph88%29.74 "Hg6 mi
12:50 pm61 °FBroken clouds.8 mph88%29.77 "HgN/A
12:20 pm63 °FPartly sunny.9 mph83%29.77 "HgN/A
11:50 am63 °FPartly sunny.6 mph83%29.77 "HgN/A
11:20 am63 °FBroken clouds.3 mph83%29.77 "HgN/A
10:50 am63 °FScattered clouds.6 mph83%29.77 "HgN/A
10:20 am61 °FPartly sunny.5 mph88%29.74 "HgN/A
9:50 am61 °FPartly sunny.6 mph88%29.74 "HgN/A
9:20 am61 °FBroken clouds.7 mph88%29.74 "HgN/A
8:50 am61 °FScattered clouds.6 mph88%29.74 "HgN/A
8:20 am59 °FPartly sunny.8 mph94%29.74 "HgN/A
7:50 am59 °FPartly sunny.9 mph94%29.74 "HgN/A
7:20 am59 °FDrizzle. Broken clouds.7 mph94%29.71 "HgN/A
11:50 pm
Wed, Apr 26
59 °FLight rain. Passing clouds.10 mph94%29.77 "Hg4 mi
11:20 pm59 °FLight rain. Partly cloudy.14 mph94%29.77 "Hg5 mi
10:50 pm59 °FPartly cloudy.14 mph94%29.77 "Hg6 mi
9:50 pm59 °FLight rain. Passing clouds.13 mph94%29.77 "Hg4 mi
9:20 pm59 °FLight rain. Passing clouds.14 mph88%29.77 "Hg4 mi
8:50 pm59 °FRain. Passing clouds.14 mph94%29.77 "Hg4 mi
Weather by CustomWeather, © 2017

See weather overviewHow to use our weather pages